Time,TemperatureF,DewpointF,PressureIn,WindDirection,WindDirectionDegrees,WindSpeedMPH,WindSpeedGustMPH,Humidity,HourlyPrecipIn,Conditions,Clouds,dailyrainin,SolarRadiationWatts/m^2,SoftwareType,DateUTC
2013-07-21 00:02:00,69.5,64.1,29.73,SSE,165,1.0,7.0,83,0.00,,,0.00,0,Wunderground v.1.15,2013-07-21 05:02:00,
2013-07-21 00:07:00,69.6,64.2,29.74,SSE,165,1.0,7.0,83,0.00,,,0.00,0,Wunderground v.1.15,2013-07-21 05:07:00,
2013-07-21 00:12:00,69.5,64.1,29.75,SSE,165,3.0,3.0,83,0.00,,,0.00,0,Wunderground v.1.15,2013-07-21 05:12:00,
2013-07-21 00:18:00,69.3,63.9,29.74,SSE,165,1.0,3.0,83,0.00,,,0.00,0,Wunderground v.1.15,2013-07-21 05:18:00,
2013-07-21 00:23:00,69.2,64.2,29.74,SSE,166,5.0,5.0,84,0.00,,,0.00,0,Wunderground v.1.15,2013-07-21 05:23:00,
2013-07-21 00:28:00,68.9,63.9,29.71,South,176,9.0,9.0,84,0.00,,,0.00,0,Wunderground v.1.15,2013-07-21 05:28:00,
2013-07-21 00:33:00,68.8,64.1,29.70,SSE,164,10.0,11.0,85,0.00,,,0.00,0,Wunderground v.1.15,2013-07-21 05:33:00,
2013-07-21 00:39:00,68.7,64.0,29.69,South,169,8.0,12.0,85,0.00,,,0.00,0,Wunderground v.1.15,2013-07-21 05:39:00,
2013-07-21 00:45:00,68.6,63.9,29.68,South,182,14.0,14.0,85,0.00,,,0.00,0,Wunderground v.1.15,2013-07-21 05:45:00,
2013-07-21 00:50:00,68.6,63.9,29.68,South,191,12.0,13.0,85,0.00,,,0.00,0,Wunderground v.1.15,2013-07-21 05:50:00,
2013-07-21 00:55:00,68.7,64.0,29.67,South,187,17.0,17.0,85,0.00,,,0.00,0,Wunderground v.1.15,2013-07-21 05:55:00,
2013-07-21 01:00:00,68.9,64.2,29.68,SSW,202,9.0,14.0,85,0.00,,,0.00,0,Wunderground v.1.15,2013-07-21 06:00:00,
2013-07-21 01:05:00,69.1,64.4,29.68,South,188,8.0,14.0,85,0.00,,,0.00,0,Wunderground v.1.15,2013-07-21 06:05:00,
2013-07-21 01:10:00,69.2,64.5,29.69,SE,144,5.0,9.0,85,0.00,,,0.00,0,Wunderground v.1.15,2013-07-21 06:10:00,
2013-07-21 01:15:00,69.3,64.6,29.70,NE,55,4.0,9.0,85,0.00,,,0.00,0,Wunderground v.1.15,2013-07-21 06:15:00,
2013-07-21 01:20:00,69.4,64.7,29.69,ENE,76,7.0,7.0,85,0.00,,,0.00,0,Wunderground v.1.15,2013-07-21 06:20:00,
2013-07-21 01:25:00,69.4,64.7,29.70,ENE,62,4.0,7.0,85,0.00,,,0.00,0,Wunderground v.1.15,2013-07-21 06:25:00,
2013-07-21 01:31:00,69.2,64.5,29.71,ENE,67,0.0,4.0,85,0.00,,,0.00,0,Wunderground v.1.15,2013-07-21 06:31:00,
2013-07-21 01:36:00,69.1,64.4,29.73,NE,40,2.0,4.0,85,0.00,,,0.00,0,Wunderground v.1.15,2013-07-21 06:36:00,
2013-07-21 01:42:00,68.8,64.1,29.73,North,5,3.0,5.0,85,0.00,,,0.00,0,Wunderground v.1.15,2013-07-21 06:42:00,
2013-07-21 01:48:00,68.6,64.2,29.73,NNE,14,15.0,15.0,86,0.00,,,0.00,0,Wunderground v.1.15,2013-07-21 06:48:00,
2013-07-21 01:53:00,68.7,64.3,29.73,NNE,29,7.0,7.0,86,0.00,,,0.00,0,Wunderground v.1.15,2013-07-21 06:53:00,
2013-07-21 01:58:00,68.5,64.1,29.72,NE,38,9.0,9.0,86,0.00,,,0.00,0,Wunderground v.1.15,2013-07-21 06:58:00,
2013-07-21 02:03:00,68.4,64.0,29.71,ENE,60,5.0,7.0,86,0.00,,,0.00,0,Wunderground v.1.15,2013-07-21 07:03:00,
2013-07-21 02:08:00,68.3,63.9,29.70,ENE,72,9.0,12.0,86,0.00,,,0.00,0,Wunderground v.1.15,2013-07-21 07:08:00,
2013-07-21 02:13:00,68.3,63.9,29.70,ENE,75,7.0,13.0,86,0.00,,,0.00,0,Wunderground v.1.15,2013-07-21 07:13:00,
2013-07-21 02:18:00,68.2,63.9,29.70,ENE,71,7.0,13.0,86,0.00,,,0.00,0,Wunderground v.1.15,2013-07-21 07:18:00,
2013-07-21 02:23:00,68.3,63.9,29.70,ENE,65,7.0,9.0,86,0.00,,,0.00,0,Wunderground v.1.15,2013-07-21 07:23:00,
2013-07-21 02:28:00,68.2,63.9,29.69,ENE,70,7.0,10.0,86,0.00,,,0.00,0,Wunderground v.1.15,2013-07-21 07:28:00,
2013-07-21 02:33:00,68.1,63.8,29.69,East,88,3.0,7.0,86,0.00,,,0.00,0,Wunderground v.1.15,2013-07-21 07:33:00,
2013-07-21 02:38:00,67.9,63.9,29.68,ENE,77,4.0,8.0,87,0.00,,,0.00,0,Wunderground v.1.15,2013-07-21 07:38:00,
2013-07-21 02:43:00,67.6,63.6,29.68,East,88,8.0,8.0,87,0.00,,,0.00,0,Wunderground v.1.15,2013-07-21 07:43:00,
2013-07-21 02:48:00,67.2,63.2,29.67,East,92,7.0,10.0,87,0.00,,,0.00,0,Wunderground v.1.15,2013-07-21 07:48:00,
2013-07-21 02:53:00,66.9,62.9,29.68,East,96,2.0,7.0,87,0.00,,,0.00,0,Wunderground v.1.15,2013-07-21 07:53:00,
2013-07-21 02:58:00,66.7,63.0,29.67,East,95,0.0,7.0,88,0.00,,,0.00,0,Wunderground v.1.15,2013-07-21 07:58:00,
2013-07-21 03:03:00,66.7,63.0,29.66,East,94,5.0,6.0,88,0.00,,,0.00,0,Wunderground v.1.15,2013-07-21 08:03:00,
2013-07-21 03:08:00,66.8,63.1,29.66,East,84,6.0,10.0,88,0.00,,,0.00,0,Wunderground v.1.15,2013-07-21 08:08:00,
2013-07-21 03:13:00,66.9,63.6,29.66,East,83,5.0,7.0,89,0.00,,,0.00,0,Wunderground v.1.15,2013-07-21 08:13:00,
2013-07-21 03:18:00,66.9,63.6,29.66,East,80,5.0,8.0,89,0.00,,,0.00,0,Wunderground v.1.15,2013-07-21 08:18:00,
2013-07-21 03:23:00,66.8,63.5,29.66,East,80,3.0,5.0,89,0.00,,,0.00,0,Wunderground v.1.15,2013-07-21 08:23:00,
2013-07-21 03:28:00,66.7,63.4,29.66,East,80,1.0,6.0,89,0.00,,,0.00,0,Wunderground v.1.15,2013-07-21 08:28:00,
2013-07-21 03:33:00,66.7,63.4,29.66,ENE,61,7.0,7.0,89,0.00,,,0.00,0,Wunderground v.1.15,2013-07-21 08:33:00,
2013-07-21 03:38:00,66.6,63.3,29.66,NE,47,1.0,7.0,89,0.00,,,0.00,0,Wunderground v.1.15,2013-07-21 08:38:00,
2013-07-21 03:43:00,66.3,63.0,29.65,NE,47,0.0,4.0,89,0.00,,,0.00,0,Wunderground v.1.15,2013-07-21 08:43:00,
2013-07-21 03:48:00,66.2,62.9,29.65,NE,47,3.0,4.0,89,0.00,,,0.00,0,Wunderground v.1.15,2013-07-21 08:48:00,
2013-07-21 03:53:00,66.2,62.9,29.66,NE,47,0.0,4.0,89,0.00,,,0.00,0,Wunderground v.1.15,2013-07-21 08:53:00,
2013-07-21 03:58:00,66.4,63.1,29.66,ENE,73,5.0,8.0,89,0.00,,,0.00,0,Wunderground v.1.15,2013-07-21 08:58:00,
2013-07-21 04:03:00,66.5,63.2,29.65,ENE,72,2.0,4.0,89,0.00,,,0.00,0,Wunderground v.1.15,2013-07-21 09:03:00,
2013-07-21 04:08:00,66.6,63.3,29.65,ENE,65,4.0,9.0,89,0.00,,,0.00,0,Wunderground v.1.15,2013-07-21 09:08:00,
2013-07-21 04:14:00,66.5,63.2,29.66,ENE,64,1.0,4.0,89,0.00,,,0.00,0,Wunderground v.1.15,2013-07-21 09:14:00,
2013-07-21 04:18:00,66.3,63.0,29.66,ENE,64,1.0,4.0,89,0.00,,,0.00,0,Wunderground v.1.15,2013-07-21 09:18:00,
2013-07-21 04:23:00,66.3,63.0,29.66,ENE,64,4.0,7.0,89,0.00,,,0.00,0,Wunderground v.1.15,2013-07-21 09:23:00,
2013-07-21 04:28:00,66.2,63.2,29.65,ENE,63,0.0,8.0,90,0.00,,,0.00,0,Wunderground v.1.15,2013-07-21 09:28:00,
2013-07-21 04:33:00,66.1,63.1,29.65,ENE,63,3.0,4.0,90,0.00,,,0.00,0,Wunderground v.1.15,2013-07-21 09:33:00,
2013-07-21 04:38:00,65.9,62.6,29.65,ENE,63,2.0,7.0,89,0.00,,,0.00,0,Wunderground v.1.15,2013-07-21 09:38:00,
2013-07-21 04:44:00,65.8,62.5,29.66,ENE,63,0.0,3.0,89,0.00,,,0.00,0,Wunderground v.1.15,2013-07-21 09:44:00,
2013-07-21 04:49:00,65.6,62.6,29.66,ENE,63,0.0,3.0,90,0.00,,,0.00,0,Wunderground v.1.15,2013-07-21 09:49:00,
2013-07-21 04:54:00,65.5,62.5,29.66,ENE,63,1.0,2.0,90,0.00,,,0.00,0,Wunderground v.1.15,2013-07-21 09:54:00,
2013-07-21 04:59:00,65.3,62.3,29.67,ENE,63,0.0,4.0,90,0.00,,,0.00,0,Wunderground v.1.15,2013-07-21 09:59:00,
2013-07-21 05:04:00,65.3,62.3,29.67,ENE,63,1.0,3.0,90,0.00,,,0.00,0,Wunderground v.1.15,2013-07-21 10:04:00,
2013-07-21 05:09:00,65.3,62.3,29.67,ENE,63,2.0,3.0,90,0.00,,,0.00,0,Wunderground v.1.15,2013-07-21 10:09:00,
2013-07-21 05:13:00,65.3,62.3,29.67,ENE,63,1.0,3.0,90,0.00,,,0.00,0,Wunderground v.1.15,2013-07-21 10:13:00,
2013-07-21 05:18:00,65.2,62.2,29.67,ENE,63,2.0,3.0,90,0.00,,,0.00,0,Wunderground v.1.15,2013-07-21 10:18:00,
2013-07-21 05:23:00,65.0,62.0,29.67,ENE,63,1.0,2.0,90,0.00,,,0.00,0,Wunderground v.1.15,2013-07-21 10:23:00,
2013-07-21 05:28:00,64.9,61.9,29.67,ENE,63,2.0,3.0,90,0.00,,,0.00,0,Wunderground v.1.15,2013-07-21 10:28:00,
2013-07-21 05:33:00,64.9,61.9,29.67,ENE,63,2.0,3.0,90,0.00,,,0.00,0,Wunderground v.1.15,2013-07-21 10:33:00,
2013-07-21 05:38:00,65.0,62.0,29.67,ENE,63,1.0,3.0,90,0.00,,,0.00,0,Wunderground v.1.15,2013-07-21 10:38:00,
2013-07-21 05:44:00,65.0,62.0,29.67,ENE,63,0.0,2.0,90,0.00,,,0.00,0,Wunderground v.1.15,2013-07-21 10:44:00,
2013-07-21 05:49:00,65.0,62.0,29.67,ENE,63,0.0,2.0,90,0.00,,,0.00,0,Wunderground v.1.15,2013-07-21 10:49:00,
2013-07-21 05:54:00,64.9,61.9,29.67,ENE,63,0.0,0.0,90,0.00,,,0.00,0,Wunderground v.1.15,2013-07-21 10:54:00,
2013-07-21 05:59:00,64.9,61.9,29.67,ENE,63,0.0,3.0,90,0.00,,,0.00,0,Wunderground v.1.15,2013-07-21 10:59:00,
2013-07-21 06:04:00,64.8,61.8,29.67,ENE,63,0.0,1.0,90,0.00,,,0.00,0,Wunderground v.1.15,2013-07-21 11:04:00,
2013-07-21 06:09:00,64.1,61.1,29.67,ENE,63,0.0,1.0,90,0.00,,,0.00,0,Wunderground v.1.15,2013-07-21 11:09:00,
2013-07-21 06:14:00,64.1,61.1,29.67,ENE,63,0.0,0.0,90,0.00,,,0.00,0,Wunderground v.1.15,2013-07-21 11:14:00,
2013-07-21 06:19:00,64.1,61.1,29.67,ENE,63,0.0,0.0,90,0.00,,,0.00,0,Wunderground v.1.15,2013-07-21 11:19:00,
2013-07-21 06:24:00,64.0,61.0,29.67,ENE,63,0.0,0.0,90,0.00,,,0.00,0,Wunderground v.1.15,2013-07-21 11:24:00,
2013-07-21 06:29:00,63.8,60.8,29.67,ENE,63,0.0,0.0,90,0.00,,,0.00,0,Wunderground v.1.15,2013-07-21 11:29:00,
2013-07-21 06:34:00,63.7,60.7,29.67,ENE,63,0.0,0.0,90,0.00,,,0.00,5,Wunderground v.1.15,2013-07-21 11:34:00,
2013-07-21 06:39:00,63.8,60.8,29.68,ENE,63,1.0,1.0,90,0.00,,,0.00,9,Wunderground v.1.15,2013-07-21 11:39:00,
2013-07-21 06:44:00,64.0,61.0,29.68,ENE,63,2.0,3.0,90,0.00,,,0.00,11,Wunderground v.1.15,2013-07-21 11:44:00,
2013-07-21 06:49:00,64.2,61.5,29.69,ENE,63,4.0,4.0,91,0.00,,,0.00,16,Wunderground v.1.15,2013-07-21 11:49:00,
2013-07-21 06:54:00,64.3,61.3,29.69,SSW,194,4.0,5.0,90,0.00,,,0.00,23,Wunderground v.1.15,2013-07-21 11:54:00,
2013-07-21 06:59:00,64.2,61.5,29.70,SSW,202,1.0,5.0,91,0.00,,,0.00,25,Wunderground v.1.15,2013-07-21 11:59:00,
2013-07-21 07:04:00,64.3,61.6,29.70,SSW,203,3.0,4.0,91,0.00,,,0.00,26,Wunderground v.1.15,2013-07-21 12:04:00,
2013-07-21 07:09:00,64.4,61.7,29.70,SSW,209,1.0,5.0,91,0.00,,,0.00,26,Wunderground v.1.15,2013-07-21 12:09:00,
2013-07-21 07:14:00,64.6,61.9,29.70,SW,221,3.0,5.0,91,0.00,,,0.00,26,Wunderground v.1.15,2013-07-21 12:14:00,
2013-07-21 07:19:00,64.6,61.9,29.70,SW,221,0.0,5.0,91,0.00,,,0.00,28,Wunderground v.1.15,2013-07-21 12:19:00,
2013-07-21 07:24:00,64.6,61.9,29.69,SW,221,1.0,3.0,91,0.00,,,0.00,32,Wunderground v.1.15,2013-07-21 12:24:00,
2013-07-21 07:29:00,64.7,62.0,29.69,SW,221,2.0,3.0,91,0.00,,,0.00,37,Wunderground v.1.15,2013-07-21 12:29:00,
2013-07-21 07:34:00,64.7,62.0,29.69,SW,221,2.0,4.0,91,0.00,,,0.00,40,Wunderground v.1.15,2013-07-21 12:34:00,
2013-07-21 07:39:00,64.9,62.2,29.68,SW,221,1.0,4.0,91,0.00,,,0.00,44,Wunderground v.1.15,2013-07-21 12:39:00,
2013-07-21 07:44:00,64.9,62.2,29.68,SW,221,3.0,4.0,91,0.00,,,0.00,51,Wunderground v.1.15,2013-07-21 12:44:00,
2013-07-21 07:49:00,65.1,62.4,29.68,SW,215,2.0,4.0,91,0.00,,,0.00,62,Wunderground v.1.15,2013-07-21 12:49:00,
2013-07-21 07:54:00,65.2,62.5,29.69,SW,216,4.0,6.0,91,0.00,,,0.00,69,Wunderground v.1.15,2013-07-21 12:54:00,
2013-07-21 07:59:00,65.2,62.5,29.70,SW,216,2.0,6.0,91,0.00,,,0.00,69,Wunderground v.1.15,2013-07-21 12:59:00,
2013-07-21 08:04:00,65.1,62.4,29.70,SW,216,3.0,7.0,91,0.00,,,0.00,67,Wunderground v.1.15,2013-07-21 13:04:00,
2013-07-21 08:09:00,65.0,62.3,29.70,SW,216,3.0,7.0,91,0.00,,,0.00,62,Wunderground v.1.15,2013-07-21 13:09:00,
2013-07-21 08:14:00,65.0,62.3,29.70,SW,216,1.0,4.0,91,0.00,,,0.00,62,Wunderground v.1.15,2013-07-21 13:14:00,
2013-07-21 08:19:00,65.2,62.5,29.69,SW,216,3.0,5.0,91,0.00,,,0.00,69,Wunderground v.1.15,2013-07-21 13:19:00,
2013-07-21 08:24:00,65.3,62.6,29.69,SW,216,1.0,3.0,91,0.00,,,0.00,79,Wunderground v.1.15,2013-07-21 13:24:00,
2013-07-21 08:29:00,65.5,62.8,29.69,SW,216,0.0,3.0,91,0.00,,,0.00,91,Wunderground v.1.15,2013-07-21 13:29:00,
2013-07-21 08:34:00,65.7,63.0,29.69,SW,216,0.0,1.0,91,0.00,,,0.00,111,Wunderground v.1.15,2013-07-21 13:34:00,
2013-07-21 08:39:00,65.9,63.2,29.69,SW,216,0.0,1.0,91,0.00,,,0.00,130,Wunderground v.1.15,2013-07-21 13:39:00,
2013-07-21 08:44:00,66.1,63.4,29.69,SW,216,2.0,3.0,91,0.00,,,0.00,156,Wunderground v.1.15,2013-07-21 13:44:00,
2013-07-21 08:50:00,66.3,63.6,29.68,SW,216,0.0,2.0,91,0.00,,,0.00,181,Wunderground v.1.15,2013-07-21 13:50:00,
2013-07-21 08:56:00,66.6,63.9,29.68,SSW,203,4.0,4.0,91,0.00,,,0.00,195,Wunderground v.1.15,2013-07-21 13:56:00,
2013-07-21 09:01:00,67.2,64.5,29.68,SSW,196,7.0,7.0,91,0.00,,,0.00,202,Wunderground v.1.15,2013-07-21 14:01:00,
2013-07-21 09:06:00,67.3,64.6,29.68,South,186,5.0,10.0,91,0.00,,,0.00,214,Wunderground v.1.15,2013-07-21 14:06:00,
2013-07-21 09:11:00,67.6,64.9,29.68,South,188,1.0,6.0,91,0.00,,,0.00,234,Wunderground v.1.15,2013-07-21 14:11:00,
2013-07-21 09:16:00,67.8,65.1,29.68,SSW,192,5.0,6.0,91,0.00,,,0.00,237,Wunderground v.1.15,2013-07-21 14:16:00,
2013-07-21 09:21:00,68.1,65.4,29.68,SSW,196,4.0,4.0,91,0.00,,,0.00,288,Wunderground v.1.15,2013-07-21 14:21:00,
2013-07-21 09:26:00,68.6,65.9,29.68,SSW,196,4.0,6.0,91,0.00,,,0.00,260,Wunderground v.1.15,2013-07-21 14:26:00,
2013-07-21 09:31:00,68.8,65.7,29.67,SSW,197,5.0,6.0,90,0.00,,,0.00,279,Wunderground v.1.15,2013-07-21 14:31:00,
2013-07-21 09:36:00,69.1,66.0,29.67,South,184,4.0,6.0,90,0.00,,,0.00,529,Wunderground v.1.15,2013-07-21 14:36:00,
2013-07-21 09:41:00,69.8,66.7,29.67,South,174,4.0,5.0,90,0.00,,,0.00,561,Wunderground v.1.15,2013-07-21 14:41:00,
2013-07-21 09:46:00,70.3,66.9,29.67,South,172,3.0,5.0,89,0.00,,,0.00,663,Wunderground v.1.15,2013-07-21 14:46:00,
2013-07-21 09:51:00,70.8,67.1,29.67,ESE,120,3.0,5.0,88,0.00,,,0.00,663,Wunderground v.1.15,2013-07-21 14:51:00,
2013-07-21 09:56:00,71.3,66.6,29.67,ESE,119,0.0,5.0,85,0.00,,,0.00,459,Wunderground v.1.15,2013-07-21 14:56:00,
2013-07-21 10:01:00,71.5,66.4,29.66,ESE,121,4.0,4.0,84,0.00,,,0.00,396,Wunderground v.1.15,2013-07-21 15:01:00,
2013-07-21 10:06:00,72.4,66.9,29.66,ESE,121,3.0,4.0,83,0.00,,,0.00,524,Wunderground v.1.15,2013-07-21 15:06:00,
2013-07-21 10:11:00,72.9,67.1,29.66,East,101,5.0,9.0,82,0.00,,,0.00,381,Wunderground v.1.15,2013-07-21 15:11:00,
2013-07-21 10:16:00,73.4,67.2,29.65,East,85,7.0,9.0,81,0.00,,,0.00,438,Wunderground v.1.15,2013-07-21 15:16:00,
2013-07-21 10:21:00,74.0,68.2,29.65,East,87,8.0,10.0,82,0.00,,,0.00,661,Wunderground v.1.15,2013-07-21 15:21:00,
2013-07-21 10:26:00,74.3,67.7,29.66,ESE,121,2.0,10.0,80,0.00,,,0.00,705,Wunderground v.1.15,2013-07-21 15:26:00,
2013-07-21 10:31:00,74.8,67.5,29.66,SE,134,5.0,8.0,78,0.00,,,0.00,673,Wunderground v.1.15,2013-07-21 15:31:00,
2013-07-21 10:36:00,75.6,67.5,29.66,SSE,148,0.0,10.0,76,0.00,,,0.00,710,Wunderground v.1.15,2013-07-21 15:36:00,
2013-07-21 10:41:00,76.2,67.7,29.66,ESE,111,3.0,5.0,75,0.00,,,0.00,729,Wunderground v.1.15,2013-07-21 15:41:00,
2013-07-21 10:46:00,77.1,67.8,29.66,ESE,116,4.0,9.0,73,0.00,,,0.00,749,Wunderground v.1.15,2013-07-21 15:46:00,
2013-07-21 10:51:00,77.7,67.5,29.66,ESE,120,4.0,6.0,71,0.00,,,0.00,775,Wunderground v.1.15,2013-07-21 15:51:00,
2013-07-21 10:56:00,77.9,66.9,29.66,SSE,154,6.0,9.0,69,0.00,,,0.00,745,Wunderground v.1.15,2013-07-21 15:56:00,
2013-07-21 11:01:00,78.0,65.3,29.66,SSE,159,2.0,7.0,65,0.00,,,0.00,522,Wunderground v.1.15,2013-07-21 16:01:00,
2013-07-21 11:06:00,78.3,67.3,29.66,East,100,8.0,8.0,69,0.00,,,0.00,758,Wunderground v.1.15,2013-07-21 16:06:00,
2013-07-21 11:11:00,79.1,66.8,29.66,ESE,115,3.0,5.0,66,0.00,,,0.00,740,Wunderground v.1.15,2013-07-21 16:11:00,
2013-07-21 11:16:00,79.5,66.7,29.66,ESE,113,1.0,7.0,65,0.00,,,0.00,735,Wunderground v.1.15,2013-07-21 16:16:00,
2013-07-21 11:21:00,79.8,66.5,29.66,South,169,3.0,6.0,64,0.00,,,0.00,831,Wunderground v.1.15,2013-07-21 16:21:00,
2013-07-21 11:26:00,80.2,68.2,29.66,East,80,7.0,9.0,67,0.00,,,0.00,846,Wunderground v.1.15,2013-07-21 16:26:00,
2013-07-21 11:31:00,80.3,66.6,29.66,ENE,59,5.0,9.0,63,0.00,,,0.00,874,Wunderground v.1.15,2013-07-21 16:31:00,
2013-07-21 11:36:00,80.4,66.6,29.65,East,87,5.0,9.0,63,0.00,,,0.00,703,Wunderground v.1.15,2013-07-21 16:36:00,
2013-07-21 11:41:00,80.6,65.4,29.65,East,84,9.0,9.0,60,0.00,,,0.00,733,Wunderground v.1.15,2013-07-21 16:41:00,
2013-07-21 11:46:00,80.7,66.5,29.65,East,93,5.0,9.0,62,0.00,,,0.00,918,Wunderground v.1.15,2013-07-21 16:46:00,
2013-07-21 11:51:00,81.6,64.9,29.65,ESE,121,4.0,8.0,57,0.00,,,0.00,508,Wunderground v.1.15,2013-07-21 16:51:00,
2013-07-21 11:56:00,81.7,65.0,29.65,East,84,6.0,11.0,57,0.00,,,0.00,867,Wunderground v.1.15,2013-07-21 16:56:00,
2013-07-21 12:01:00,81.6,64.9,29.65,East,80,8.0,10.0,57,0.00,,,0.00,905,Wunderground v.1.15,2013-07-21 17:01:00,
2013-07-21 12:06:00,81.6,65.4,29.65,ENE,74,4.0,10.0,58,0.00,,,0.00,582,Wunderground v.1.15,2013-07-21 17:06:00,
2013-07-21 12:11:00,81.8,65.1,29.65,ENE,67,9.0,11.0,57,0.00,,,0.00,898,Wunderground v.1.15,2013-07-21 17:11:00,
2013-07-21 12:12:00,81.8,65.1,29.65,ENE,70,8.0,11.0,57,0.00,,,0.00,895,Wunderground v.1.15,2013-07-21 17:12:00,
2013-07-21 12:17:00,81.9,64.7,29.65,East,90,6.0,11.0,56,0.00,,,0.00,900,Wunderground v.1.15,2013-07-21 17:17:00,
2013-07-21 12:22:00,81.9,64.1,29.65,ENE,60,5.0,11.0,55,0.00,,,0.00,933,Wunderground v.1.15,2013-07-21 17:22:00,
2013-07-21 12:27:00,82.1,64.8,29.65,ENE,57,5.0,11.0,56,0.00,,,0.00,947,Wunderground v.1.15,2013-07-21 17:27:00,
2013-07-21 12:32:00,81.9,64.1,29.65,East,98,9.0,10.0,55,0.00,,,0.00,911,Wunderground v.1.15,2013-07-21 17:32:00,
2013-07-21 12:37:00,82.5,65.2,29.64,ENE,68,8.0,13.0,56,0.00,,,0.00,921,Wunderground v.1.15,2013-07-21 17:37:00,
2013-07-21 12:42:00,82.7,65.4,29.64,ENE,69,4.0,11.0,56,0.00,,,0.00,374,Wunderground v.1.15,2013-07-21 17:42:00,
2013-07-21 12:47:00,82.7,66.9,29.64,NE,42,9.0,11.0,59,0.00,,,0.00,930,Wunderground v.1.15,2013-07-21 17:47:00,
2013-07-21 12:52:00,83.1,66.8,29.64,ENE,61,9.0,9.0,58,0.00,,,0.00,940,Wunderground v.1.15,2013-07-21 17:52:00,
2013-07-21 12:57:00,84.0,65.6,29.64,East,83,11.0,14.0,54,0.00,,,0.00,944,Wunderground v.1.15,2013-07-21 17:57:00,
2013-07-21 13:02:00,84.0,62.2,29.64,SE,130,7.0,14.0,48,0.00,,,0.00,947,Wunderground v.1.15,2013-07-21 18:02:00,
2013-07-21 13:07:00,84.8,64.7,29.63,ENE,69,8.0,14.0,51,0.00,,,0.00,954,Wunderground v.1.15,2013-07-21 18:07:00,
2013-07-21 13:12:00,84.5,62.1,29.63,SE,126,8.0,11.0,47,0.00,,,0.00,954,Wunderground v.1.15,2013-07-21 18:12:00,
2013-07-21 13:17:00,84.4,60.7,29.63,East,80,6.0,13.0,45,0.00,,,0.00,963,Wunderground v.1.15,2013-07-21 18:17:00,
2013-07-21 13:22:00,84.5,62.7,29.63,East,98,3.0,11.0,48,0.00,,,0.00,561,Wunderground v.1.15,2013-07-21 18:22:00,
2013-07-21 13:27:00,84.3,64.8,29.62,East,88,11.0,11.0,52,0.00,,,0.00,953,Wunderground v.1.15,2013-07-21 18:27:00,
2013-07-21 13:32:00,84.1,64.0,29.62,ENE,77,12.0,14.0,51,0.00,,,0.00,963,Wunderground v.1.15,2013-07-21 18:32:00,
2013-07-21 13:37:00,84.5,64.9,29.62,East,82,10.0,14.0,52,0.00,,,0.00,958,Wunderground v.1.15,2013-07-21 18:37:00,
2013-07-21 13:42:00,84.5,64.9,29.62,ENE,59,5.0,8.0,52,0.00,,,0.00,986,Wunderground v.1.15,2013-07-21 18:42:00,
2013-07-21 13:47:00,84.6,65.6,29.62,ENE,68,9.0,12.0,53,0.00,,,0.00,1002,Wunderground v.1.15,2013-07-21 18:47:00,
2013-07-21 13:52:00,84.7,61.6,29.62,SE,137,6.0,9.0,46,0.00,,,0.00,1007,Wunderground v.1.15,2013-07-21 18:52:00,
2013-07-21 13:57:00,85.0,61.3,29.61,SE,128,4.0,9.0,45,0.00,,,0.00,914,Wunderground v.1.15,2013-07-21 18:57:00,
2013-07-21 14:02:00,85.3,65.1,29.61,East,94,5.0,7.0,51,0.00,,,0.00,923,Wunderground v.1.15,2013-07-21 19:02:00,
2013-07-21 14:07:00,85.9,64.5,29.61,East,94,10.0,11.0,49,0.00,,,0.00,872,Wunderground v.1.15,2013-07-21 19:07:00,
2013-07-21 14:12:00,86.8,63.5,29.61,ENE,76,10.0,11.0,46,0.00,,,0.00,835,Wunderground v.1.15,2013-07-21 19:12:00,
2013-07-21 14:17:00,86.1,65.3,29.60,NE,56,2.0,14.0,50,0.00,,,0.00,1016,Wunderground v.1.15,2013-07-21 19:17:00,
2013-07-21 14:22:00,86.0,64.0,29.60,East,88,9.0,11.0,48,0.00,,,0.00,744,Wunderground v.1.15,2013-07-21 19:22:00,
2013-07-21 14:27:00,85.6,64.8,29.60,East,89,10.0,15.0,50,0.00,,,0.00,529,Wunderground v.1.15,2013-07-21 19:27:00,
2013-07-21 14:32:00,84.8,63.5,29.60,East,88,10.0,11.0,49,0.00,,,0.00,884,Wunderground v.1.15,2013-07-21 19:32:00,
2013-07-21 14:37:00,85.0,64.8,29.60,ENE,62,8.0,13.0,51,0.00,,,0.00,953,Wunderground v.1.15,2013-07-21 19:37:00,
2013-07-21 14:42:00,85.3,65.7,29.59,ENE,69,13.0,14.0,52,0.00,,,0.00,858,Wunderground v.1.15,2013-07-21 19:42:00,
2013-07-21 14:47:00,85.4,65.2,29.59,East,82,10.0,14.0,51,0.00,,,0.00,909,Wunderground v.1.15,2013-07-21 19:47:00,
2013-07-21 14:52:00,85.7,66.0,29.59,East,87,9.0,13.0,52,0.00,,,0.00,668,Wunderground v.1.15,2013-07-21 19:52:00,
2013-07-21 14:57:00,85.5,64.2,29.59,East,90,6.0,13.0,49,0.00,,,0.00,710,Wunderground v.1.15,2013-07-21 19:57:00,
2013-07-21 15:02:00,85.7,64.3,29.59,ENE,77,8.0,13.0,49,0.00,,,0.00,851,Wunderground v.1.15,2013-07-21 20:02:00,
2013-07-21 15:07:00,85.7,66.0,29.59,ENE,67,8.0,13.0,52,0.00,,,0.00,911,Wunderground v.1.15,2013-07-21 20:07:00,
2013-07-21 15:12:00,85.9,65.7,29.59,ENE,59,8.0,11.0,51,0.00,,,0.00,721,Wunderground v.1.15,2013-07-21 20:12:00,
2013-07-21 15:17:00,85.7,66.0,29.59,East,84,10.0,14.0,52,0.00,,,0.00,742,Wunderground v.1.15,2013-07-21 20:17:00,
2013-07-21 15:22:00,85.5,64.7,29.59,East,86,5.0,11.0,50,0.00,,,0.00,524,Wunderground v.1.15,2013-07-21 20:22:00,
2013-07-21 15:27:00,85.0,64.8,29.59,East,86,9.0,13.0,51,0.00,,,0.00,445,Wunderground v.1.15,2013-07-21 20:27:00,
2013-07-21 15:32:00,84.7,65.7,29.59,ENE,68,5.0,8.0,53,0.00,,,0.00,439,Wunderground v.1.15,2013-07-21 20:32:00,
2013-07-21 15:37:00,84.6,64.5,29.59,East,84,6.0,9.0,51,0.00,,,0.00,519,Wunderground v.1.15,2013-07-21 20:37:00,
2013-07-21 15:42:00,84.8,65.8,29.59,ENE,69,8.0,8.0,53,0.00,,,0.00,568,Wunderground v.1.15,2013-07-21 20:42:00,
2013-07-21 15:47:00,84.8,64.7,29.59,ENE,76,5.0,13.0,51,0.00,,,0.00,448,Wunderground v.1.15,2013-07-21 20:47:00,
2013-07-21 15:52:00,84.7,66.2,29.59,ENE,73,5.0,9.0,54,0.00,,,0.00,436,Wunderground v.1.15,2013-07-21 20:52:00,
2013-07-21 15:57:00,84.3,66.4,29.59,ENE,64,5.0,9.0,55,0.00,,,0.00,418,Wunderground v.1.15,2013-07-21 20:57:00,
2013-07-21 16:02:00,83.8,66.4,29.59,NE,53,6.0,10.0,56,0.00,,,0.00,378,Wunderground v.1.15,2013-07-21 21:02:00,
2013-07-21 16:07:00,83.8,67.9,29.59,ENE,62,8.0,10.0,59,0.00,,,0.00,436,Wunderground v.1.15,2013-07-21 21:07:00,
2013-07-21 16:12:00,83.9,67.5,29.59,East,80,6.0,8.0,58,0.00,,,0.00,476,Wunderground v.1.15,2013-07-21 21:12:00,
2013-07-21 16:17:00,84.0,67.1,29.59,ENE,57,7.0,9.0,57,0.00,,,0.00,350,Wunderground v.1.15,2013-07-21 21:17:00,
2013-07-21 16:22:00,83.7,66.8,29.59,ENE,62,4.0,8.0,57,0.00,,,0.00,341,Wunderground v.1.15,2013-07-21 21:22:00,
2013-07-21 16:27:00,83.2,65.4,29.59,NE,56,7.0,11.0,55,0.00,,,0.00,476,Wunderground v.1.15,2013-07-21 21:27:00,
2013-07-21 16:32:00,83.3,67.0,29.58,ENE,74,7.0,9.0,58,0.00,,,0.00,765,Wunderground v.1.15,2013-07-21 21:32:00,
2013-07-21 16:37:00,83.8,66.9,29.59,ENE,65,5.0,10.0,57,0.00,,,0.00,564,Wunderground v.1.15,2013-07-21 21:37:00,
2013-07-21 16:42:00,83.9,66.0,29.58,NE,42,4.0,10.0,55,0.00,,,0.00,696,Wunderground v.1.15,2013-07-21 21:42:00,
2013-07-21 16:47:00,84.2,66.8,29.58,NE,56,7.0,10.0,56,0.00,,,0.00,633,Wunderground v.1.15,2013-07-21 21:47:00,
2013-07-21 16:52:00,84.4,65.9,29.58,ENE,73,10.0,12.0,54,0.00,,,0.00,315,Wunderground v.1.15,2013-07-21 21:52:00,
2013-07-21 16:57:00,84.1,66.7,29.58,ENE,78,7.0,12.0,56,0.00,,,0.00,399,Wunderground v.1.15,2013-07-21 21:57:00,
2013-07-21 17:02:00,84.2,67.3,29.58,ENE,78,8.0,11.0,57,0.00,,,0.00,860,Wunderground v.1.15,2013-07-21 22:02:00,
2013-07-21 17:07:00,85.0,68.1,29.58,NE,55,8.0,11.0,57,0.00,,,0.00,840,Wunderground v.1.15,2013-07-21 22:07:00,
2013-07-21 17:12:00,85.5,67.5,29.58,ENE,60,8.0,13.0,55,0.00,,,0.00,807,Wunderground v.1.15,2013-07-21 22:12:00,
2013-07-21 17:18:00,85.3,67.3,29.58,East,93,14.0,15.0,55,0.00,,,0.00,777,Wunderground v.1.15,2013-07-21 22:18:00,
2013-07-21 17:23:00,85.5,65.9,29.58,East,91,10.0,11.0,52,0.00,,,0.00,754,Wunderground v.1.15,2013-07-21 22:23:00,
2013-07-21 17:28:00,86.1,67.0,29.58,ENE,61,8.0,13.0,53,0.00,,,0.00,668,Wunderground v.1.15,2013-07-21 22:28:00,
2013-07-21 17:33:00,86.2,66.5,29.58,ESE,104,10.0,15.0,52,0.00,,,0.00,701,Wunderground v.1.15,2013-07-21 22:33:00,
2013-07-21 17:38:00,86.3,66.0,29.58,East,94,14.0,16.0,51,0.00,,,0.00,673,Wunderground v.1.15,2013-07-21 22:38:00,
2013-07-21 17:43:00,86.4,65.6,29.58,East,82,11.0,14.0,50,0.00,,,0.00,664,Wunderground v.1.15,2013-07-21 22:43:00,
2013-07-21 17:48:00,86.1,65.9,29.58,ENE,76,9.0,15.0,51,0.00,,,0.00,592,Wunderground v.1.15,2013-07-21 22:48:00,
2013-07-21 17:53:00,85.9,66.8,29.58,ENE,70,10.0,13.0,53,0.00,,,0.00,629,Wunderground v.1.15,2013-07-21 22:53:00,
2013-07-21 17:58:00,85.7,66.0,29.58,East,84,9.0,14.0,52,0.00,,,0.00,466,Wunderground v.1.15,2013-07-21 22:58:00,
2013-07-21 18:03:00,85.6,66.5,29.58,East,82,9.0,11.0,53,0.00,,,0.00,461,Wunderground v.1.15,2013-07-21 23:03:00,
2013-07-21 18:08:00,84.7,66.2,29.58,East,88,10.0,13.0,54,0.00,,,0.00,325,Wunderground v.1.15,2013-07-21 23:08:00,
2013-07-21 18:13:00,84.1,67.2,29.58,East,83,6.0,10.0,57,0.00,,,0.00,241,Wunderground v.1.15,2013-07-21 23:13:00,
2013-07-21 18:18:00,83.6,67.8,29.58,East,88,7.0,10.0,59,0.00,,,0.00,288,Wunderground v.1.15,2013-07-21 23:18:00,
2013-07-21 18:23:00,83.1,67.3,29.57,East,82,8.0,11.0,59,0.00,,,0.00,371,Wunderground v.1.15,2013-07-21 23:23:00,
2013-07-21 18:28:00,83.4,67.6,29.57,East,87,9.0,13.0,59,0.00,,,0.00,506,Wunderground v.1.15,2013-07-21 23:28:00,
2013-07-21 18:33:00,83.8,67.4,29.57,East,85,10.0,13.0,58,0.00,,,0.00,343,Wunderground v.1.15,2013-07-21 23:33:00,
2013-07-21 18:38:00,83.8,67.4,29.57,East,88,9.0,13.0,58,0.00,,,0.00,454,Wunderground v.1.15,2013-07-21 23:38:00,
2013-07-21 18:43:00,83.9,67.0,29.57,East,86,8.0,14.0,57,0.00,,,0.00,411,Wunderground v.1.15,2013-07-21 23:43:00,
2013-07-21 18:48:00,84.2,67.3,29.57,East,87,9.0,14.0,57,0.00,,,0.00,385,Wunderground v.1.15,2013-07-21 23:48:00,
2013-07-21 18:53:00,84.3,67.9,29.57,East,88,10.0,11.0,58,0.00,,,0.00,360,Wunderground v.1.15,2013-07-21 23:53:00,
2013-07-21 18:58:00,84.1,67.7,29.57,East,88,9.0,11.0,58,0.00,,,0.00,339,Wunderground v.1.15,2013-07-21 23:58:00,
2013-07-21 19:03:00,83.9,67.5,29.57,East,88,9.0,13.0,58,0.00,,,0.00,318,Wunderground v.1.15,2013-07-22 00:03:00,
2013-07-21 19:08:00,83.6,67.8,29.57,East,91,10.0,13.0,59,0.00,,,0.00,299,Wunderground v.1.15,2013-07-22 00:08:00,
2013-07-21 19:13:00,83.3,67.0,29.57,East,98,8.0,10.0,58,0.00,,,0.00,287,Wunderground v.1.15,2013-07-22 00:13:00,
2013-07-21 19:18:00,83.0,67.2,29.57,East,97,11.0,13.0,59,0.00,,,0.00,269,Wunderground v.1.15,2013-07-22 00:18:00,
2013-07-21 19:23:00,82.9,67.1,29.57,ESE,103,8.0,11.0,59,0.00,,,0.00,257,Wunderground v.1.15,2013-07-22 00:23:00,
2013-07-21 19:28:00,82.7,66.9,29.57,East,99,7.0,11.0,59,0.00,,,0.00,241,Wunderground v.1.15,2013-07-22 00:28:00,
2013-07-21 19:33:00,82.6,66.8,29.57,ESE,103,8.0,11.0,59,0.00,,,0.00,160,Wunderground v.1.15,2013-07-22 00:33:00,
2013-07-21 19:38:00,82.5,65.7,29.57,ESE,110,12.0,12.0,57,0.00,,,0.00,202,Wunderground v.1.15,2013-07-22 00:38:00,
2013-07-21 19:43:00,82.5,65.7,29.57,ESE,110,5.0,11.0,57,0.00,,,0.00,185,Wunderground v.1.15,2013-07-22 00:43:00,
2013-07-21 19:48:00,82.1,66.4,29.57,ESE,108,4.0,11.0,59,0.00,,,0.00,144,Wunderground v.1.15,2013-07-22 00:48:00,
2013-07-21 19:53:00,81.6,66.4,29.57,ESE,109,5.0,7.0,60,0.00,,,0.00,32,Wunderground v.1.15,2013-07-22 00:53:00,
2013-07-21 19:58:00,81.2,66.0,29.57,ESE,109,3.0,9.0,60,0.00,,,0.00,30,Wunderground v.1.15,2013-07-22 00:58:00,
2013-07-21 20:03:00,80.9,66.2,29.56,ESE,111,5.0,8.0,61,0.00,,,0.00,28,Wunderground v.1.15,2013-07-22 01:03:00,
2013-07-21 20:08:00,80.5,66.3,29.56,ESE,113,3.0,8.0,62,0.00,,,0.00,26,Wunderground v.1.15,2013-07-22 01:08:00,
2013-07-21 20:13:00,80.1,66.4,29.56,ESE,113,5.0,7.0,63,0.00,,,0.00,26,Wunderground v.1.15,2013-07-22 01:13:00,
2013-07-21 20:18:00,79.8,66.1,29.57,ESE,114,4.0,8.0,63,0.00,,,0.00,25,Wunderground v.1.15,2013-07-22 01:18:00,
2013-07-21 20:23:00,79.6,65.9,29.57,ESE,117,3.0,8.0,63,0.00,,,0.00,23,Wunderground v.1.15,2013-07-22 01:23:00,
2013-07-21 20:28:00,79.3,66.1,29.57,ESE,119,4.0,8.0,64,0.00,,,0.00,21,Wunderground v.1.15,2013-07-22 01:28:00,
2013-07-21 20:33:00,78.9,66.1,29.57,ESE,119,4.0,7.0,65,0.00,,,0.00,18,Wunderground v.1.15,2013-07-22 01:33:00,
2013-07-21 20:38:00,78.5,65.8,29.57,ESE,116,5.0,9.0,65,0.00,,,0.00,14,Wunderground v.1.15,2013-07-22 01:38:00,
2013-07-21 20:43:00,78.0,65.7,29.57,ESE,115,4.0,7.0,66,0.00,,,0.00,12,Wunderground v.1.15,2013-07-22 01:43:00,
2013-07-21 20:48:00,77.4,66.0,29.57,ESE,115,3.0,7.0,68,0.00,,,0.00,9,Wunderground v.1.15,2013-07-22 01:48:00,
2013-07-21 20:54:00,76.6,65.7,29.57,ESE,115,4.0,5.0,69,0.00,,,0.00,5,Wunderground v.1.15,2013-07-22 01:54:00,
2013-07-21 20:59:00,76.0,65.9,29.57,ESE,115,4.0,7.0,71,0.00,,,0.00,0,Wunderground v.1.15,2013-07-22 01:59:00,
2013-07-21 21:04:00,75.3,66.0,29.57,ESE,115,2.0,5.0,73,0.00,,,0.00,0,Wunderground v.1.15,2013-07-22 02:04:00,
2013-07-21 21:09:00,74.7,65.9,29.57,ESE,115,4.0,7.0,74,0.00,,,0.00,0,Wunderground v.1.15,2013-07-22 02:09:00,
2013-07-21 21:14:00,74.3,65.9,29.57,ESE,115,3.0,7.0,75,0.00,,,0.00,0,Wunderground v.1.15,2013-07-22 02:14:00,
2013-07-21 21:19:00,74.1,65.7,29.57,ESE,115,4.0,7.0,75,0.00,,,0.00,0,Wunderground v.1.15,2013-07-22 02:19:00,
2013-07-21 21:24:00,73.9,65.5,29.58,ESE,115,5.0,5.0,75,0.00,,,0.00,0,Wunderground v.1.15,2013-07-22 02:24:00,
2013-07-21 21:29:00,74.0,65.2,29.58,ESE,115,7.0,7.0,74,0.00,,,0.00,0,Wunderground v.1.15,2013-07-22 02:29:00,
2013-07-21 21:34:00,74.1,65.3,29.58,ESE,115,5.0,5.0,74,0.00,,,0.00,0,Wunderground v.1.15,2013-07-22 02:34:00,
2013-07-21 21:39:00,74.2,65.4,29.58,ESE,115,4.0,5.0,74,0.00,,,0.00,0,Wunderground v.1.15,2013-07-22 02:39:00,
2013-07-21 21:44:00,74.1,65.3,29.59,ESE,116,5.0,7.0,74,0.00,,,0.00,0,Wunderground v.1.15,2013-07-22 02:44:00,
2013-07-21 21:49:00,73.9,65.1,29.59,ESE,117,4.0,8.0,74,0.00,,,0.00,0,Wunderground v.1.15,2013-07-22 02:49:00,
2013-07-21 21:54:00,73.8,65.4,29.59,ESE,117,4.0,8.0,75,0.00,,,0.00,0,Wunderground v.1.15,2013-07-22 02:54:00,
2013-07-21 21:59:00,73.8,65.4,29.59,ESE,117,2.0,8.0,75,0.00,,,0.00,0,Wunderground v.1.15,2013-07-22 02:59:00,
2013-07-21 22:04:00,73.7,65.3,29.60,ESE,117,3.0,5.0,75,0.00,,,0.00,0,Wunderground v.1.15,2013-07-22 03:04:00,
2013-07-21 22:09:00,73.5,65.5,29.60,ESE,117,5.0,8.0,76,0.00,,,0.00,0,Wunderground v.1.15,2013-07-22 03:09:00,
2013-07-21 22:14:00,73.1,65.5,29.60,ESE,117,5.0,8.0,77,0.00,,,0.00,0,Wunderground v.1.15,2013-07-22 03:14:00,
2013-07-21 22:19:00,72.9,65.3,29.60,ESE,120,5.0,10.0,77,0.00,,,0.00,0,Wunderground v.1.15,2013-07-22 03:19:00,
2013-07-21 22:24:00,72.8,65.5,29.60,ESE,121,4.0,8.0,78,0.00,,,0.00,0,Wunderground v.1.15,2013-07-22 03:24:00,
2013-07-21 22:29:00,72.8,65.5,29.60,ESE,121,5.0,8.0,78,0.00,,,0.00,0,Wunderground v.1.15,2013-07-22 03:29:00,
2013-07-21 22:34:00,72.6,65.3,29.60,ESE,121,5.0,5.0,78,0.00,,,0.00,0,Wunderground v.1.15,2013-07-22 03:34:00,
2013-07-21 22:39:00,72.5,65.2,29.60,ESE,121,3.0,8.0,78,0.00,,,0.00,0,Wunderground v.1.15,2013-07-22 03:39:00,
2013-07-21 22:44:00,72.2,65.3,29.60,ESE,121,2.0,7.0,79,0.00,,,0.00,0,Wunderground v.1.15,2013-07-22 03:44:00,
2013-07-21 22:49:00,71.8,65.3,29.60,ESE,121,4.0,7.0,80,0.00,,,0.00,0,Wunderground v.1.15,2013-07-22 03:49:00,
2013-07-21 22:54:00,71.5,65.0,29.60,ESE,121,4.0,4.0,80,0.00,,,0.00,0,Wunderground v.1.15,2013-07-22 03:54:00,
2013-07-21 22:59:00,71.2,65.1,29.60,ESE,121,4.0,5.0,81,0.00,,,0.00,0,Wunderground v.1.15,2013-07-22 03:59:00,
2013-07-21 23:01:00,71.1,65.0,29.60,ESE,121,4.0,4.0,81,0.00,,,0.00,0,Wunderground v.1.15,2013-07-22 04:01:00,
2013-07-21 23:06:00,70.8,64.7,29.60,ESE,121,4.0,5.0,81,0.00,,,0.00,0,Wunderground v.1.15,2013-07-22 04:06:00,
2013-07-21 23:11:00,70.5,64.7,29.60,ESE,121,3.0,4.0,82,0.00,,,0.00,0,Wunderground v.1.15,2013-07-22 04:11:00,
2013-07-21 23:16:00,70.2,64.4,29.60,ESE,121,3.0,4.0,82,0.00,,,0.00,0,Wunderground v.1.15,2013-07-22 04:16:00,
2013-07-21 23:21:00,69.9,64.5,29.60,ESE,121,3.0,5.0,83,0.00,,,0.00,0,Wunderground v.1.15,2013-07-22 04:21:00,
2013-07-21 23:26:00,69.7,64.3,29.60,ESE,121,7.0,7.0,83,0.00,,,0.00,0,Wunderground v.1.15,2013-07-22 04:26:00,
2013-07-21 23:31:00,69.7,64.3,29.60,ESE,123,5.0,7.0,83,0.00,,,0.00,0,Wunderground v.1.15,2013-07-22 04:31:00,
2013-07-21 23:36:00,69.7,64.3,29.60,SE,124,5.0,7.0,83,0.00,,,0.00,0,Wunderground v.1.15,2013-07-22 04:36:00,
2013-07-21 23:41:00,69.7,64.3,29.60,SE,125,4.0,5.0,83,0.00,,,0.00,0,Wunderground v.1.15,2013-07-22 04:41:00,
2013-07-21 23:46:00,69.7,64.3,29.60,SE,125,4.0,5.0,83,0.00,,,0.00,0,Wunderground v.1.15,2013-07-22 04:46:00,
2013-07-21 23:51:00,69.9,64.5,29.60,SE,126,6.0,6.0,83,0.00,,,0.00,0,Wunderground v.1.15,2013-07-22 04:51:00,
2013-07-21 23:56:00,70.3,64.9,29.60,SE,132,5.0,7.0,83,0.00,,,0.00,0,Wunderground v.1.15,2013-07-22 04:56:00,